Home > Weather > Berkeley > Past weeks

Flag for USA Weather for the Past 2 Weeks in Berkeley, California, USA

Now
57 °F

Clear.


Feels Like: 56 °F
Forecast: 56 / 75 °F
Wind: 7 mph from Northwest

Location: Metro Oakland International Airport

Current Time: Apr 30, 2016 at 4:27:58 AM

Latest Report: Apr 30, 2016 at 3:53 AM


Visibility: 10 mi

Pressure: 29.92 "Hg

Humidity: 58%

Dew Point: 42 °F

Location of BerkeleyLocation

Historic Weather in Berkeley — Graph

°F

Berkeley Temperature Yesterday

Maximum temperature yesterday: 66 °F (at 2:53 PM)
Minimum temperature yesterday: 53 °F (at 2:53 AM)
Average temperature yesterday: 59 °F

High & Low Weather Summary for the Past Weeks

 TemperatureHumidityPressure
High80 °F (Apr 17, 3:53 PM)90% (Apr 27, 10:53 AM)30.21 "Hg (Apr 27, 10:53 AM)
Low49 °F (Apr 20, 5:53 AM)22% (Apr 19, 6:53 PM)29.80 "Hg (Apr 22, 5:53 AM)
Average61 °F60%30.00 "Hg
* Reported Apr 15 2:53 AM — Apr 30 2:53 AM, Berkeley, Weather by CustomWeather, © 2016

Note: Actual official high and low records may vary slightly from our data, if they occured in-between our weather recording intervals... More about our weather records

Advertising

Berkeley Weather History for the Previous 24 Hours

Scroll right to see more
 ConditionsComfort  
Time TempWeatherWind HumidityBarometerVisibility
2:53 AM
Sat, Apr 30
58 °FClear.8 mph58%29.93 "Hg10 mi
1:53 AM57 °FClear.9 mph60%29.93 "Hg10 mi
12:53 AM56 °FClear.6 mph65%29.94 "Hg10 mi
11:53 PM
Fri, Apr 29
57 °FPassing clouds.8 mph64%29.94 "Hg10 mi
10:53 PM58 °FPassing clouds.14 mph65%29.93 "Hg10 mi
9:53 PM58 °FPassing clouds.14 mph67%29.94 "Hg10 mi
8:53 PM60 °FScattered clouds.17 mph60%29.92 "Hg10 mi
7:53 PM60 °FPartly sunny.17 mph62%29.92 "Hg10 mi
6:53 PM63 °FPartly sunny.17 mph56%29.93 "Hg10 mi
5:53 PM64 °FPartly sunny.23 mph56%29.94 "Hg10 mi
4:53 PM65 °FPartly sunny.18 mph54%29.96 "Hg10 mi
3:53 PM66 °FPartly sunny.21 mph56%29.97 "Hg10 mi
2:53 PM66 °FPassing clouds.15 mph54%30.00 "Hg10 mi
1:53 PM64 °FPassing clouds.15 mph58%30.02 "Hg10 mi
12:53 PM61 °FPassing clouds.8 mph60%30.04 "Hg10 mi
11:53 AM61 °FPassing clouds.12 mph62%30.06 "Hg10 mi
10:53 AM60 °FPassing clouds.7 mph65%30.06 "Hg10 mi
9:53 AM58 °FPartly sunny.7 mph70%30.06 "Hg10 mi
8:53 AM57 °FPartly sunny.8 mph72%30.05 "Hg10 mi
7:53 AM55 °FPartly sunny.3 mph74%30.04 "Hg10 mi
6:53 AM53 °FPartly cloudy.7 mph77%30.01 "Hg10 mi
5:53 AM53 °FPassing clouds.9 mph80%30.00 "Hg10 mi
4:53 AM53 °FOvercast.No wind80%30.01 "Hg10 mi
Weather by CustomWeather, © 2016

See weather overviewHow to use our weather pages